• In United Kingdom
  • List of Countries
  • For 7 days
  • Water Temperature
  • Satellite Maps
  • Weather Map
  • Weather Widgets
  • user-avatar
    Login

    Hourly Weather Sete

    Today, 17 January, Wednesday

    Time Temperature Precipitation Wind Pressure Humidity
    00:00 +12°C° 0 mm 9 mps 759 mmHg 72%
    01:00 +12°C° 0 mm 9 mps 759 mmHg 69%
    02:00 +12°C° 0 mm 10 mps 759 mmHg 67%
    03:00 +11°C° 0 mm 10 mps 759 mmHg 64%
    04:00 +11°C° 0 mm 10 mps 759 mmHg 64%
    05:00 +9°C° 0 mm 10 mps 759 mmHg 64%
    06:00 +9°C° 0 mm 10 mps 760 mmHg 63%
    07:00 +9°C° 0 mm 11 mps 761 mmHg 62%
    08:00 +8°C° 0 mm 11 mps 761 mmHg 62%
    09:00 +8°C° 0 mm 12 mps 762 mmHg 61%
    10:00 +9°C° 0 mm 11 mps 763 mmHg 58%
    11:00 +9°C° 0 mm 11 mps 763 mmHg 56%
    12:00 +9°C° 0 mm 11 mps 764 mmHg 54%
    13:00 +9°C° 0 mm 11 mps 764 mmHg 55%
    14:00 +9°C° 0 mm 10 mps 764 mmHg 55%
    15:00 +8°C° 0 mm 10 mps 765 mmHg 56%
    16:00 +7°C° 0 mm 9 mps 765 mmHg 59%
    17:00 +7°C° 0 mm 9 mps 766 mmHg 62%
    18:00 +6°C° 0 mm 8 mps 767 mmHg 65%
    19:00 +6°C° 0 mm 8 mps 767 mmHg 66%
    20:00 +5°C° 0 mm 8 mps 768 mmHg 68%
    21:00 +5°C° 0 mm 7 mps 769 mmHg 69%
    22:00 +5°C° 0 mm 7 mps 769 mmHg 71%
    23:00 +5°C° 0 mm 7 mps 769 mmHg 73%

    Tomorrow, 18 January, Thursday

    Time Temperature Precipitation Wind Pressure Humidity
    00:00 +5°C° 0 mm 7 mps 769 mmHg 74%
    01:00 +5°C° 0 mm 6 mps 768 mmHg 76%
    02:00 +5°C° 0 mm 6 mps 768 mmHg 77%
    03:00 +5°C° 0 mm 6 mps 768 mmHg 78%
    04:00 +6°C° 0 mm 5 mps 768 mmHg 78%
    05:00 +6°C° 0 mm 5 mps 768 mmHg 79%
    06:00 +6°C° 0 mm 5 mps 768 mmHg 80%
    07:00 +6°C° 0 mm 5 mps 767 mmHg 78%
    08:00 +7°C° 0 mm 5 mps 767 mmHg 77%
    09:00 +7°C° 0 mm 5 mps 767 mmHg 76%
    10:00 +9°C° 0 mm 5 mps 767 mmHg 72%
    11:00 +10°C° 0 mm 6 mps 766 mmHg 68%
    12:00 +13°C° 0 mm 6 mps 766 mmHg 64%
    13:00 +13°C° 0 mm 6 mps 765 mmHg 65%
    14:00 +13°C° 0 mm 5 mps 764 mmHg 66%
    15:00 +13°C° 0 mm 5 mps 764 mmHg 68%
    16:00 +12°C° 0 mm 5 mps 764 mmHg 72%
    17:00 +10°C° 0 mm 4 mps 764 mmHg 77%
    18:00 +8°C° 0 mm 4 mps 764 mmHg 82%
    19:00 +8°C° 0 mm 4 mps 764 mmHg 82%
    20:00 +8°C° 0 mm 4 mps 764 mmHg 82%
    21:00 +8°C° 0 mm 4 mps 764 mmHg 82%
    22:00 +8°C° 0 mm 5 mps 763 mmHg 81%
    23:00 +8°C° 0 mm 5 mps 763 mmHg 80%

    Day after tomorrow, 19 January, Friday

    Time Temperature Precipitation Wind Pressure Humidity
    00:00 +8°C° 0 mm 5 mps 762 mmHg 78%
    01:00 +9°C° 0 mm 6 mps 762 mmHg 78%
    02:00 +9°C° 0 mm 6 mps 762 mmHg 78%
    03:00 +10°C° 0 mm 6 mps 761 mmHg 78%
    04:00 +10°C° 0 mm 6 mps 761 mmHg 80%
    05:00 +9°C° 0 mm 6 mps 761 mmHg 82%
    06:00 +9°C° 0 mm 6 mps 761 mmHg 83%
    07:00 +10°C° 0 mm 6 mps 761 mmHg 80%
    08:00 +10°C° 0 mm 6 mps 761 mmHg 78%
    09:00 +10°C° 0 mm 6 mps 762 mmHg 75%
    10:00 +11°C° 0 mm 7 mps 762 mmHg 70%
    11:00 +11°C° 0 mm 7 mps 761 mmHg 65%
    12:00 +11°C° 0 mm 8 mps 761 mmHg 59%
    13:00 +11°C° 0 mm 8 mps 761 mmHg 60%
    14:00 +11°C° 0 mm 8 mps 761 mmHg 60%
    15:00 +10°C° 0 mm 8 mps 761 mmHg 60%
    16:00 +9°C° 0 mm 8 mps 761 mmHg 63%
    17:00 +7°C° 0 mm 8 mps 762 mmHg 66%
    18:00 +7°C° 0 mm 8 mps 762 mmHg 69%
    19:00 +6°C° 0 mm 8 mps 763 mmHg 69%
    20:00 +6°C° 0 mm 8 mps 763 mmHg 69%
    21:00 +5°C° 0 mm 7 mps 764 mmHg 69%
    22:00 +5°C° 0 mm 7 mps 764 mmHg 70%
    23:00 +5°C° 0 mm 7 mps 764 mmHg 71%

    20 January, Saturday

    Time Temperature Precipitation Wind Pressure Humidity
    00:00 +5°C° 0 mm 7 mps 764 mmHg 71%
    01:00 +5°C° 0 mm 7 mps 764 mmHg 71%
    02:00 +4°C° 0 mm 7 mps 764 mmHg 71%
    03:00 +4°C° 0 mm 7 mps 764 mmHg 71%
    04:00 +4°C° 0 mm 7 mps 764 mmHg 72%
    05:00 +4°C° 0 mm 7 mps 764 mmHg 73%
    06:00 +4°C° 0 mm 6 mps 764 mmHg 74%
    07:00 +5°C° 0 mm 6 mps 764 mmHg 74%
    08:00 +7°C° 0 mm 6 mps 764 mmHg 74%
    09:00 +7°C° 0 mm 6 mps 764 mmHg 74%
    10:00 +8°C° 0 mm 6 mps 763 mmHg 71%
    11:00 +9°C° 0 mm 6 mps 763 mmHg 69%
    12:00 +9°C° 0 mm 6 mps 762 mmHg 66%
    13:00 +9°C° 0.7 mm 6 mps 761 mmHg 72%
    14:00 +8°C° 0.7 mm 6 mps 759 mmHg 77%
    15:00 +8°C° 0.7 mm 7 mps 758 mmHg 82%
    16:00 +9°C° 1 mm 7 mps 757 mmHg 83%
    17:00 +9°C° 1 mm 8 mps 757 mmHg 84%
    18:00 +10°C° 1 mm 9 mps 756 mmHg 85%
    19:00 +10°C° 0.1 mm 9 mps 756 mmHg 82%
    20:00 +11°C° 0.1 mm 8 mps 757 mmHg 80%
    21:00 +11°C° 0.1 mm 8 mps 757 mmHg 77%
    22:00 +10°C° 0 mm 8 mps 758 mmHg 77%
    23:00 +9°C° 0 mm 8 mps 759 mmHg 76%

    21 January, Sunday

    Time Temperature Precipitation Wind Pressure Humidity
    00:00 +8°C° 0 mm 7 mps 760 mmHg 76%
    01:00 +8°C° 0 mm 7 mps 760 mmHg 76%
    02:00 +8°C° 0 mm 7 mps 761 mmHg 76%
    03:00 +8°C° 0 mm 7 mps 761 mmHg 76%
    04:00 +7°C° 0 mm 6 mps 762 mmHg 77%
    05:00 +7°C° 0 mm 6 mps 762 mmHg 77%
    06:00 +7°C° 0 mm 6 mps 763 mmHg 77%
    07:00 +8°C° 0 mm 5 mps 763 mmHg 77%
    08:00 +8°C° 0 mm 5 mps 764 mmHg 76%
    09:00 +10°C° 0 mm 4 mps 765 mmHg 75%
    10:00 +10°C° 0.1 mm 4 mps 765 mmHg 76%
    11:00 +11°C° 0.1 mm 3 mps 765 mmHg 77%
    12:00 +11°C° 0.1 mm 3 mps 765 mmHg 78%
    13:00 +12°C° 0 mm 4 mps 765 mmHg 79%
    14:00 +12°C° 0 mm 4 mps 765 mmHg 79%
    15:00 +13°C° 0 mm 5 mps 765 mmHg 80%
    16:00 +13°C° 0 mm 5 mps 765 mmHg 79%
    17:00 +13°C° 0 mm 6 mps 766 mmHg 79%
    18:00 +12°C° 0 mm 7 mps 766 mmHg 79%
    19:00 +12°C° 0 mm 7 mps 766 mmHg 80%
    20:00 +12°C° 0 mm 7 mps 767 mmHg 80%
    21:00 +12°C° 0 mm 7 mps 767 mmHg 81%
    22:00 +12°C° 0 mm 7 mps 767 mmHg 81%
    23:00 +12°C° 0 mm 7 mps 767 mmHg 81%

    22 January, Monday

    Time Temperature Precipitation Wind Pressure Humidity
    00:00 +12°C° 0 mm 8 mps 767 mmHg 82%
    01:00 +11°C° 0 mm 7 mps 767 mmHg 81%
    02:00 +11°C° 0 mm 7 mps 767 mmHg 80%
    03:00 +11°C° 0 mm 7 mps 767 mmHg 79%
    04:00 +11°C° 0 mm 7 mps 767 mmHg 79%
    05:00 +12°C° 0 mm 8 mps 767 mmHg 79%
    06:00 +12°C° 0 mm 8 mps 767 mmHg 78%
    07:00 +12°C° 0 mm 8 mps 767 mmHg 78%
    08:00 +13°C° 0 mm 9 mps 767 mmHg 77%
    09:00 +13°C° 0 mm 9 mps 767 mmHg 76%
    10:00 +15°C° 0 mm 9 mps 767 mmHg 74%
    11:00 +15°C° 0 mm 9 mps 766 mmHg 72%
    12:00 +16°C° 0 mm 9 mps 766 mmHg 69%
    13:00 +16°C° 0 mm 9 mps 766 mmHg 70%
    14:00 +16°C° 0 mm 8 mps 766 mmHg 70%
    15:00 +16°C° 0 mm 8 mps 766 mmHg 70%
    16:00 +15°C° 0 mm 7 mps 766 mmHg 73%
    17:00 +14°C° 0 mm 6 mps 766 mmHg 76%
    18:00 +13°C° 0 mm 6 mps 767 mmHg 79%
    19:00 +13°C° 0 mm 6 mps 767 mmHg 80%
    20:00 +13°C° 0 mm 6 mps 767 mmHg 81%
    21:00 +11°C° 0 mm 6 mps 767 mmHg 83%
    22:00 +12°C° 0 mm 5 mps 767 mmHg 84%
    23:00 +12°C° 0 mm 5 mps 767 mmHg 85%
    Show more